Location: Grange Rosano
(44.4500°N, 6.9667°E)
Time: 19:29:56
(UTC+00:00)

SL-16 R/B - Pass Details

Date: 26 May 2022
Orbit: 985 x 1006 km, 99.6° (Epoch: 01 July)

Event Time Altitude Azimuth Distance (km) Brightness Sun altitude
Exits shadow 01:14:42 19° 157° (SSE) 2,152 3.9 -20.2°
Maximum altitude 01:19:17 80° 73° (ENE) 1,018 2.6 -19.8°
Drops below altitude 10° 01:25:33 10° 347° (NNW) 2,783 5.6 -19.3°
Sets 01:28:02 0° 346° (NNW) 3,739 6.3 -19.0°
